TimeCDT,TemperatureF,Dew PointF,Humidity,Sea Level PressureIn,VisibilityMPH,Wind Direction,Wind SpeedMPH,Gust SpeedMPH,PrecipitationIn,Events,Conditions,WindDirDegrees,DateUTC
12:53 AM,79.0,73.9,84,29.93,10.0,WSW,6.9,-,N/A,,Clear,240,2013-07-24 05:53:00
1:53 AM,79.0,73.9,84,29.91,10.0,WSW,5.8,-,N/A,,Clear,250,2013-07-24 06:53:00
2:53 AM,78.1,73.9,87,29.91,10.0,WSW,4.6,-,N/A,,Clear,250,2013-07-24 07:53:00
3:53 AM,78.1,73.9,87,29.92,10.0,WSW,6.9,-,N/A,,Clear,250,2013-07-24 08:53:00
4:53 AM,78.1,73.9,87,29.93,10.0,WSW,6.9,-,N/A,,Mostly Cloudy,250,2013-07-24 09:53:00
5:25 AM,78.8,73.4,83,29.95,10.0,West,9.2,-,N/A,,Mostly Cloudy,260,2013-07-24 10:25:00
5:53 AM,78.1,73.9,87,29.94,10.0,West,8.1,-,N/A,,Overcast,260,2013-07-24 10:53:00
6:53 AM,78.1,75.0,90,29.94,9.0,WSW,8.1,16.1,N/A,,Overcast,240,2013-07-24 11:53:00
7:53 AM,79.0,75.0,88,29.95,8.0,WSW,6.9,-,N/A,,Scattered Clouds,240,2013-07-24 12:53:00
8:51 AM,80.6,75.2,84,29.97,10.0,WNW,8.1,17.3,N/A,,Mostly Cloudy,290,2013-07-24 13:51:00
8:53 AM,81.0,75.0,82,29.96,10.0,West,9.2,-,N/A,,Mostly Cloudy,270,2013-07-24 13:53:00
9:43 AM,82.4,75.2,79,29.97,10.0,West,6.9,18.4,N/A,,Mostly Cloudy,270,2013-07-24 14:43:00
9:53 AM,82.0,75.0,79,29.96,10.0,West,8.1,-,N/A,,Mostly Cloudy,270,2013-07-24 14:53:00
10:30 AM,82.4,75.2,79,29.97,10.0,West,9.2,-,N/A,,Mostly Cloudy,260,2013-07-24 15:30:00
10:44 AM,84.2,75.2,74,29.97,10.0,West,8.1,-,N/A,,Mostly Cloudy,260,2013-07-24 15:44:00
10:53 AM,84.0,75.0,74,29.96,10.0,West,9.2,-,N/A,,Mostly Cloudy,260,2013-07-24 15:53:00
11:33 AM,84.2,75.2,74,29.97,10.0,West,8.1,-,N/A,,Overcast,280,2013-07-24 16:33:00
11:53 AM,86.0,75.9,72,29.96,10.0,West,6.9,-,N/A,,Mostly Cloudy,260,2013-07-24 16:53:00
12:53 PM,87.1,73.9,65,29.96,10.0,Variable,4.6,20.7,N/A,,Clear,0,2013-07-24 17:53:00
1:53 PM,86.0,73.9,67,29.94,10.0,West,9.2,-,N/A,,Clear,260,2013-07-24 18:53:00
2:53 PM,88.0,73.0,61,29.91,10.0,Variable,6.9,28.8,N/A,,Clear,0,2013-07-24 19:53:00
3:53 PM,89.1,73.0,59,29.89,10.0,Variable,5.8,-,N/A,,Scattered Clouds,0,2013-07-24 20:53:00
4:53 PM,88.0,72.0,59,29.89,10.0,WNW,6.9,-,N/A,,Partly Cloudy,300,2013-07-24 21:53:00
5:53 PM,86.0,73.0,65,29.88,10.0,WNW,3.5,-,N/A,,Clear,300,2013-07-24 22:53:00
6:49 PM,80.6,73.4,79,29.93,2.5,NNW,17.3,24.2,0.08,Rain-Thunderstorm,Light Thunderstorms and Rain,330,2013-07-24 23:49:00
6:53 PM,77.0,73.9,90,29.93,1.2,NNW,11.5,24.2,0.14,Rain-Thunderstorm,Heavy Thunderstorms and Rain,330,2013-07-24 23:53:00
7:03 PM,75.2,73.4,94,29.93,3.0,NNW,4.6,-,0.03,Rain-Thunderstorm,Light Thunderstorms and Rain,340,2013-07-25 00:03:00
7:24 PM,75.2,73.4,94,29.92,10.0,North,4.6,-,0.03,Rain,Light Rain,10,2013-07-25 00:24:00
7:53 PM,75.0,73.0,94,29.91,10.0,ENE,4.6,-,0.03,Rain,Light Rain,60,2013-07-25 00:53:00
8:53 PM,75.0,73.0,94,29.92,10.0,Calm,Calm,-,0.00,,Clear,0,2013-07-25 01:53:00
9:53 PM,75.0,73.0,94,29.92,10.0,Calm,Calm,-,N/A,,Clear,0,2013-07-25 02:53:00
10:53 PM,75.0,73.0,94,29.93,10.0,SW,3.5,-,N/A,,Mostly Cloudy,230,2013-07-25 03:53:00
11:53 PM,75.9,73.9,94,29.93,10.0,North,3.5,-,N/A,,Mostly Cloudy,10,2013-07-25 04:53:00